Tracking 19847 objects as of 16-Sep-2019
HD Live streaming from Space Station
objects crossing your sky now

FENGYUN 1C DEB

Track FENGYUN 1C DEB now!
10-day predictions


NORAD ID: 37902
Int'l Code: 1999-025ENB
Perigee: 847.3 km
Apogee: 1,358.4 km
Inclination: 98.7 °
Period: 107.2 minutes
Semi major axis: 7473 km
RCS: 0.0026 m2 (small)
Launch date: May 10, 1999
Source: People's Republic of China (PRC)
Launch site: Taiyaun Space Center, China (TSC)

Note: This is SATELLITE DEBRIS
aabbcc
Your satellite tracking list
Your tracking list is empty




NASA's NSSDC Master Catalog

Two Line Element Set (TLE):
1 37902U 99025ENB 19258.59774985  .00000242  00000-0  34032-3 0  9998
2 37902  98.6996  23.0947 0341892   6.7723 353.7863 13.43653580470720
Source of the keplerian elements: AFSPC